星链-31445 (STARLINK-31445 )

导读 | 星芒AI

STARLINK-31445 是 SpaceX Starlink 卫星互联网项目中的一颗低轨卫星,属于第二代 Starlink 任务(v1.5 或 v2)。该卫星于 2023 年发射,旨在为全球用户提供高速、低延迟的宽带互联网服务。它运行在约 550 公里的轨道高度,配备先进通信设备,支持更广覆盖和更高带宽。作为 Starlink 网络的一部分,STARLINK-31445 有助于提升偏远地区的网络接入能力,并增强整体系统的冗余与稳定性。

基本信息
目录编号:
59312
目录名称:
STARLINK-31445
国际标识:
2024-056S
轨道中心:
EARTH
卫星名称:
星链-31445
卫星全名:
星链-31445 (STARLINK-31445 )
卫星状态:
在轨 (已飞行636 天)
发射日期:
2024-03-24 UTC
国别 :
美国 (US)
星等 :
--
轨道信息
数据来源 国际轨道数据
星历时间: 2025-12-19T14:32:26+0800
18小时前
查看轨道信息
半长轴: 6861.182km
偏心率: 0.0001163
轨道倾角: 43.003°
近地点辐角 249.865°
升交点赤经 331.949°
平近点角 110.208°
近地点: 482.247km
远地点: 483.843km
周期: 94.267分钟
每日圈数: 15.275816
详细信息
固有亮度:
5
最大亮度:
0.3
卫星平台:
Starlink v2.0 mini
覆盖范围:
全球
运营商:
太空探索技术公司
运营商所在国:
美国
制造商(研发单位):
太空探索技术公司
制造商所在国:
美国
使用方式:
暂无
卫星简介
星链(Starlink)计划是由太空探索技术公司(SpaceX)提出的一个巨型低轨卫星互联网星座项目,计划在2019年至2024年间在太空搭建由约1.2万颗卫星组成的“星链”网络,其中1584颗将部署在地球上空550千米处的近地轨道,并从2020年开始工作。该卫星仍在工作。
2D轨道图
3D轨道图
轨道高度分析图
轨道倾角分析图
轨道综合分析图
查看轨道综合分析图